Santiago, Chile

11:49 PM CLT on February 07, 2016 (GMT -0300)
Arturo Merino Benitez International

Weather History for SCEL - October, 2012

Change the Weather History Date:

Thursday, October 4, 2012

  Actual Average Record
Temperature  
Mean Temperature 56 °F -  
Max Temperature 69 °F 70 °F 82 °F (2004)
Min Temperature 42 °F 44 °F 39 °F (2013)
Degree Days  
Heating Degree Days 10    
Growing Degree Days 6 (Base 50)    
Moisture  
Dew Point 39 °F    
Average Humidity 52    
Maximum Humidity 81    
Minimum Humidity 25    
Precipitation  
Precipitation 0.00 in - - ()
Sea Level Pressure  
Sea Level Pressure 30.07 in    
Wind  
Wind Speed 7 mph ()    
Max Wind Speed 16 mph    
Max Gust Speed -    
Visibility 6.2 miles    
Events      
Averages and records for this station are not official NWS values.
T = Trace of Precipitation, MM = Missing Value Source: Averaged Metar Reports

Daily Weather History Graph

Daily Weather History Graph

Search for Another Location

Airport or City:

Trip Planner

Search our weather history database for the weather conditions in past years. The results will help you decide how hot, cold, wet, or windy it might be!

Date:

Astronomy

Oct. 04, 2012 Rise Set
Actual Time 7:15 AM CLST 7:48 PM CLST
Civil Twilight 6:50 AM CLST 8:13 PM CLST
Nautical Twilight 6:21 AM CLST 8:42 PM CLST
Astronomical Twilight 5:51 AM CLST 9:12 PM CLST
Moon No Moon Rise 9:46 AM CLST (10/4)
Length of Visible Light 13h 22m
Length of Day
12h 32m
Waning Gibbous, 82% of the Moon is Illuminated
Oct 4
Waning Gibbous
Oct 8
Last Quarter
Oct 15
New
Oct 22
First Quarter
Oct 29
Full

Hourly Weather History & Observations

Time (CLST) Temp. Windchill Dew Point Humidity Pressure Visibility Wind Dir Wind Speed Gust Speed Precip Events Conditions
12:00 AM 58 °F - 41 °F 41% 30.05 in 6 mi SE 5.8 mph - -   Partly Cloudy
12:00 AM 57.2 °F - 41.0 °F 55% 30.04 in 6.2 mi SE 5.8 mph - N/A   Scattered Clouds
1:00 AM 57.2 °F - 39.2 °F 51% 30.04 in 6.2 mi SE 6.9 mph - N/A   Scattered Clouds
2:00 AM 53.6 °F - 39.2 °F 58% 30.06 in 6.2 mi SSE 9.2 mph - N/A   Partly Cloudy
3:00 AM 51 °F - 38 °F 52% 30.08 in 6 mi South 8.1 mph - -   Clear
3:00 AM 51.8 °F - 39.2 °F 62% 30.06 in - South 8.1 mph - N/A   Clear
4:00 AM 48.2 °F - 39.2 °F 71% 30.04 in - South 3.5 mph - N/A   Clear
5:00 AM 46.4 °F - 37.4 °F 71% 30.04 in - SE 1.2 mph - N/A   Clear
6:00 AM 44 °F - 36 °F 66% 30.09 in 11 mi North 3.5 mph - -   Haze
6:00 AM 44.6 °F 43.1 °F 37.4 °F 76% 30.04 in 5.0 mi North 3.5 mph - N/A   Clear
7:00 AM 44.6 °F - 37.4 °F 76% 30.06 in 5.0 mi Variable 1.2 mph - N/A   Clear
8:00 AM 44.6 °F 40.7 °F 39.2 °F 81% 30.06 in 5.0 mi SSE 6.9 mph - N/A   Unknown
9:00 AM 48 °F - 39 °F 61% 30.14 in 6 mi SSE 10.4 mph - -   Clear
9:00 AM 48.2 °F - 39.2 °F 71% 30.09 in - SSE 10.4 mph - N/A   Clear
10:00 AM 53.6 °F - 39.2 °F 58% 30.09 in - SSE 10.4 mph - N/A   Clear
11:00 AM 57.2 °F - 39.2 °F 51% 30.12 in - South 9.2 mph - N/A   Clear
12:00 PM 62 °F - 38 °F 30% 30.09 in 6 mi South 4.6 mph - -   Clear
12:00 PM 62.6 °F - 39.2 °F 42% 30.09 in - South 4.6 mph - N/A   Clear
1:00 PM 64.4 °F - 37.4 °F 37% 30.09 in - WSW 3.5 mph - N/A   Clear
2:00 PM 68.0 °F - 39.2 °F 35% 30.06 in 6.2 mi West 4.6 mph - N/A   Mostly Cloudy
3:00 PM 68 °F - 40 °F 25% 30.02 in 6 mi SSE 9.2 mph - -   Scattered Clouds
3:00 PM 68.0 °F - 41.0 °F 37% 30.04 in 6.2 mi SSE 9.2 mph - N/A   Mostly Cloudy
4:00 PM 69.8 °F - 37.4 °F 31% 30.04 in 6.2 mi SSE 6.9 mph - N/A   Mostly Cloudy
5:00 PM 64.4 °F - 42.8 °F 45% 30.04 in 6.2 mi SW 16.1 mph - N/A   Mostly Cloudy
6:00 PM 62 °F - 42 °F 36% 30.03 in 6 mi SSW 16.1 mph - -   Mostly Cloudy
6:00 PM 62.6 °F - 42.8 °F 48% 30.04 in 6.2 mi SSW 16.1 mph - N/A   Mostly Cloudy
7:00 PM 60.8 °F - 42.8 °F 52% 30.06 in 6.2 mi South 10.4 mph - N/A   Mostly Cloudy
8:00 PM 59.0 °F - 39.2 °F 48% 30.06 in 6.2 mi SSE 12.7 mph - N/A   Overcast
9:00 PM 56 °F - 38 °F 39% 30.10 in 6 mi South 10.4 mph - -   Mostly Cloudy
9:00 PM 55.4 °F - 37.4 °F 51% 30.09 in 6.2 mi South 10.4 mph - N/A   Mostly Cloudy
10:00 PM 55.4 °F - 39.2 °F 54% 30.09 in 6.2 mi SSE 6.9 mph - N/A   Mostly Cloudy
11:00 PM 53.6 °F - 39.2 °F 58% 30.09 in 6.2 mi SSE 6.9 mph - N/A   Mostly Cloudy